Change the Weather History Date:

Monday, October 24, 2011

  Actual Average Record
Temperature  
Mean Temperature 60 °F -  
Max Temperature 73 °F 64 °F 84 °F (2012)
Min Temperature 48 °F 42 °F 24 °F (2006)
Degree Days  
Heating Degree Days 4    
Growing Degree Days 10 (Base 50)    
Moisture  
Dew Point 44 °F    
Average Humidity 56    
Maximum Humidity 97    
Minimum Humidity 27    
Precipitation  
Precipitation 0.00 in - - ()
Sea Level Pressure  
Sea Level Pressure 30.09 in    
Wind  
Wind Speed 6 mph (South)    
Max Wind Speed 14 mph    
Max Gust Speed -    
Visibility 10 miles    
Events      
Averages and records for this station are not official NWS values.
T = Trace of Precipitation, MM = Missing Value Source: NWS Daily Summary

Daily Weather History Graph

Daily Weather History Graph

Search for Another Location

Airport or City:

Trip Planner

Search our weather history database for the weather conditions in past years. The results will help you decide how hot, cold, wet, or windy it might be!

Date:

Astronomy

Oct. 24, 2011 Rise Set
Actual Time 7:20 AM CDT 6:12 PM CDT
Civil Twilight 6:53 AM CDT 6:39 PM CDT
Nautical Twilight 6:22 AM CDT 7:10 PM CDT
Astronomical Twilight 5:51 AM CDT 7:41 PM CDT
Moon 4:40 AM CDT (10/24) 4:36 PM CDT (10/24)
Length of Visible Light 11h 45m
Length of Day
10h 51m
Waning Crescent, 7% of the Moon is Illuminated
Oct 24
Waning Crescent
Oct 26
New
Nov 2
First Quarter
Nov 10
Full
Nov 18
Last Quarter

Hourly Weather History & Observations

Time (CDT) Temp. Dew Point Humidity Pressure Visibility Wind Dir Wind Speed Gust Speed Precip Events Conditions
12:54 AM 61.0 °F 50.0 °F 67% 29.98 in 10.0 mi SW 9.2 mph - N/A   Clear
1:54 AM 62.1 °F 50.0 °F 65% 29.98 in 10.0 mi SW 13.8 mph - N/A   Clear
2:54 AM 61.0 °F 50.0 °F 67% 29.98 in 10.0 mi WSW 11.5 mph - N/A   Clear
3:54 AM 59.0 °F 51.1 °F 75% 30.00 in 10.0 mi West 9.2 mph - N/A   Clear
4:54 AM 53.1 °F 48.9 °F 86% 30.03 in 10.0 mi WSW 6.9 mph - N/A   Clear
5:54 AM 54.0 °F 51.1 °F 90% 30.05 in 10.0 mi WSW 5.8 mph - N/A   Clear
6:54 AM 50.0 °F 48.9 °F 96% 30.08 in 10.0 mi Calm Calm - N/A   Clear
7:54 AM 48.9 °F 48.0 °F 97% 30.11 in 10.0 mi SW 3.5 mph - N/A   Clear
8:54 AM 57.9 °F 51.1 °F 78% 30.14 in 10.0 mi West 6.9 mph - N/A   Clear
9:54 AM 61.0 °F 50.0 °F 67% 30.17 in 10.0 mi Calm Calm - N/A   Clear
10:54 AM 66.0 °F 45.0 °F 47% 30.18 in 10.0 mi Calm Calm - N/A   Clear
11:54 AM 68.0 °F 41.0 °F 37% 30.17 in 10.0 mi Calm Calm - N/A   Clear
12:54 PM 69.8 °F 42.8 °F 38% 30.15 in 10.0 mi East 3.5 mph - N/A   Partly Cloudy
1:54 PM 71.1 °F 39.9 °F 32% 30.13 in 10.0 mi Calm Calm - N/A   Clear
2:54 PM 73.9 °F 37.9 °F 27% 30.12 in 10.0 mi Calm Calm - N/A   Scattered Clouds
3:54 PM 73.0 °F 37.9 °F 28% 30.11 in 10.0 mi ENE 5.8 mph - N/A   Scattered Clouds
4:54 PM 72.0 °F 41.0 °F 33% 30.11 in 10.0 mi East 5.8 mph - N/A   Partly Cloudy
5:54 PM 68.0 °F 39.0 °F 35% 30.11 in 10.0 mi East 4.6 mph - N/A   Clear
6:54 PM 62.1 °F 41.0 °F 46% 30.11 in 10.0 mi SE 4.6 mph - N/A   Scattered Clouds
7:54 PM 59.0 °F 41.0 °F 51% 30.12 in 10.0 mi Calm Calm - N/A   Scattered Clouds
8:54 PM 63.0 °F 37.9 °F 40% 30.12 in 10.0 mi ESE 4.6 mph - N/A   Clear
9:54 PM 62.1 °F 37.9 °F 41% 30.11 in 10.0 mi SE 3.5 mph - N/A   Clear
10:54 PM 61.0 °F 37.9 °F 42% 30.10 in 10.0 mi ESE 4.6 mph - N/A   Clear
11:54 PM 57.9 °F 39.0 °F 49% 30.10 in 10.0 mi Variable 3.5 mph - N/A   Clear